User: anonymous   Login
Location: Mentone
(34.5413°N, 85.5351°W)
Time: 22:33:12
(UTC-05:00)
Language:

ATLAS 5 CENTAUR R/B - Orbit

View from above orbital plane
View from above orbital plane
View from above satellite
View from above satellite

Ground track
Ground track

The orbit data is extracted from the following two-line orbital elements,

1 31702U 07027B   15110.86009401 0.00000400  00000-0  16411-3 0    08
2 31702  63.3760 358.3580 0182000 353.8624   6.1376 14.18341422    07
Epoch (UTC): 20 April 2015 20:38:32
Eccentricity: 0.0182000
inclination: 63.3760°
perigee height: 700 km
apogee height: 962 km
right ascension of ascending node: 358.3580°
argument of perigee: 353.8624°
revolutions per day: 14.18341422
mean anomaly at epoch: 6.1376°
orbit number at epoch: 0

The dashed part of the orbit path shows where the satellite is in the earth's shadow,  

DLR